EKA9146 PANC-PAEH

Flight info

Callsign EKA9146
Flight time N/A
Altitude 14000
Route RRLND
Aircraft DC6/M-SDE1FGHIRWXY/S

Departure

Time 2026-05-04 13:19
Airport Ted Stevens Anchorage International Airport (PANC)

Arrival

Time N/A
Airport Cape Newenham LRRS Airport (PAEH)
Time Latitude Longitude Altitude Speed Heading
2026-05-04 13:04 61.17256 -149.95077 161 ft 0 kts 93°
2026-05-04 13:13 61.17256 -149.95076 161 ft 0 kts 93°
2026-05-04 13:15 61.17250 -149.94969 161 ft 17 kts 113°
2026-05-04 13:15 61.17126 -149.94854 161 ft 20 kts 165°
2026-05-04 13:15 61.17061 -149.94859 161 ft 0 kts 204°
2026-05-04 13:16 61.17060 -149.94859 161 ft 0 kts 204°
2026-05-04 13:16 61.17054 -149.94865 161 ft 5 kts 203°
2026-05-04 13:17 61.17004 -149.94908 161 ft 8 kts 203°
2026-05-04 13:17 61.16982 -149.94979 161 ft 0 kts 270°
2026-05-04 13:17 61.16982 -149.94980 161 ft 0 kts 270°
2026-05-04 13:18 61.16982 -149.95008 161 ft 17 kts 270°
2026-05-04 13:18 61.16979 -149.95808 162 ft 86 kts 269°
2026-05-04 13:18 61.16973 -149.97306 189 ft 119 kts 269°
2026-05-04 13:19 61.16967 -149.99211 295 ft 138 kts 270°
2026-05-04 13:19 61.16937 -150.01218 596 ft 141 kts 265°
2026-05-04 13:19 61.16779 -150.03270 870 ft 147 kts 260°
2026-05-04 13:19 61.16554 -150.05324 1151 ft 146 kts 258°
2026-05-04 13:20 61.16304 -150.07353 1422 ft 145 kts 257°
2026-05-04 13:20 61.16042 -150.09362 1683 ft 144 kts 257°
2026-05-04 13:20 61.15771 -150.11365 1941 ft 144 kts 257°
2026-05-04 13:20 61.15497 -150.13361 2195 ft 144 kts 256°
2026-05-04 13:21 61.15223 -150.15333 2444 ft 144 kts 256°
2026-05-04 13:21 61.14944 -150.17328 2694 ft 144 kts 256°
2026-05-04 13:21 61.14659 -150.19351 2946 ft 145 kts 256°
2026-05-04 13:21 61.14380 -150.21330 3200 ft 145 kts 256°
2026-05-04 13:22 61.14096 -150.23334 3458 ft 145 kts 256°
2026-05-04 13:22 61.13811 -150.25347 3707 ft 146 kts 256°
2026-05-04 13:22 61.13525 -150.27358 3954 ft 146 kts 256°
2026-05-04 13:22 61.13238 -150.29380 4202 ft 146 kts 257°
2026-05-04 13:23 61.12949 -150.31409 4449 ft 147 kts 257°
2026-05-04 13:23 61.12659 -150.33441 4698 ft 147 kts 257°
2026-05-04 13:23 61.12368 -150.35479 4946 ft 148 kts 257°
2026-05-04 13:23 61.12077 -150.37518 5192 ft 148 kts 257°
2026-05-04 13:24 61.11788 -150.39538 5437 ft 148 kts 257°
2026-05-04 13:24 61.11494 -150.41585 5685 ft 149 kts 257°
2026-05-04 13:24 61.11200 -150.43636 5936 ft 149 kts 257°
2026-05-04 13:25 61.10607 -150.47762 6429 ft 150 kts 257°
2026-05-04 13:25 61.10309 -150.49835 6675 ft 150 kts 257°
2026-05-04 13:25 61.10009 -150.51916 6921 ft 151 kts 257°
2026-05-04 13:25 61.09709 -150.54000 7166 ft 152 kts 257°
2026-05-04 13:26 61.09406 -150.56098 7413 ft 156 kts 257°
2026-05-04 13:26 61.09091 -150.58279 7701 ft 158 kts 256°
2026-05-04 13:26 61.08777 -150.60437 7974 ft 156 kts 256°
2026-05-04 13:26 61.08465 -150.62583 8238 ft 156 kts 256°
2026-05-04 13:27 61.08153 -150.64732 8493 ft 156 kts 256°
2026-05-04 13:27 61.07841 -150.66875 8744 ft 156 kts 256°
2026-05-04 13:27 61.07533 -150.68990 8988 ft 156 kts 256°
2026-05-04 13:27 61.07220 -150.71137 9236 ft 156 kts 256°
2026-05-04 13:28 61.06907 -150.73283 9489 ft 156 kts 256°
2026-05-04 13:28 61.06594 -150.75421 9747 ft 156 kts 256°
2026-05-04 13:28 61.06280 -150.77565 10006 ft 155 kts 256°
2026-05-04 13:28 61.05968 -150.79694 10267 ft 155 kts 255°
2026-05-04 13:29 61.05657 -150.81812 10530 ft 154 kts 255°
2026-05-04 13:29 61.05347 -150.83918 10793 ft 153 kts 255°
2026-05-04 13:29 61.05038 -150.86015 11057 ft 152 kts 255°
2026-05-04 13:29 61.04731 -150.88103 11321 ft 152 kts 255°
2026-05-04 13:30 61.04423 -150.90187 11586 ft 151 kts 255°
2026-05-04 13:30 61.04221 -150.91555 11760 ft 150 kts 255°
2026-05-04 13:30 61.03916 -150.93618 12025 ft 150 kts 255°
2026-05-04 13:30 61.03613 -150.95667 12285 ft 149 kts 255°
2026-05-04 13:31 61.03309 -150.97718 12543 ft 149 kts 256°
2026-05-04 13:31 61.02907 -151.00426 12888 ft 148 kts 256°
2026-05-04 13:31 61.02703 -151.01796 13061 ft 148 kts 256°
2026-05-04 13:31 61.02400 -151.03834 13318 ft 148 kts 256°
2026-05-04 13:32 61.02098 -151.05864 13574 ft 148 kts 256°
2026-05-04 13:32 61.01796 -151.07893 13830 ft 148 kts 257°
2026-05-04 13:32 61.01495 -151.09907 14047 ft 151 kts 257°
2026-05-04 13:32 61.01172 -151.12089 14042 ft 167 kts 256°
2026-05-04 13:33 61.00816 -151.14493 14020 ft 181 kts 256°
2026-05-04 13:33 61.00437 -151.17032 14009 ft 188 kts 256°
2026-05-04 13:33 61.00046 -151.19632 14004 ft 192 kts 256°
2026-05-04 13:33 60.99644 -151.22304 14004 ft 197 kts 256°
2026-05-04 13:34 60.99233 -151.25027 14003 ft 201 kts 256°
2026-05-04 13:34 60.98813 -151.27805 14000 ft 205 kts 256°
2026-05-04 13:34 60.98387 -151.30623 13998 ft 208 kts 256°
2026-05-04 13:34 60.97955 -151.33480 13998 ft 210 kts 256°
2026-05-04 13:35 60.97517 -151.36368 13998 ft 212 kts 256°
2026-05-04 13:35 60.96630 -151.42198 13997 ft 215 kts 256°
2026-05-04 13:35 60.96181 -151.45141 13997 ft 216 kts 256°
2026-05-04 13:36 60.95731 -151.48091 13998 ft 217 kts 256°
2026-05-04 13:36 60.95283 -151.51014 13997 ft 217 kts 256°
2026-05-04 13:36 60.94828 -151.53987 13997 ft 218 kts 256°
2026-05-04 13:36 60.94372 -151.56959 13997 ft 218 kts 256°
2026-05-04 13:37 60.93913 -151.59944 13997 ft 219 kts 256°
2026-05-04 13:37 60.93454 -151.62927 13997 ft 219 kts 256°
2026-05-04 13:37 60.92993 -151.65915 13997 ft 219 kts 256°
2026-05-04 13:37 60.92532 -151.68900 13997 ft 220 kts 256°
2026-05-04 13:38 60.92069 -151.71891 13998 ft 219 kts 256°
2026-05-04 13:38 60.91604 -151.74889 13998 ft 220 kts 256°
2026-05-04 13:38 60.91138 -151.77889 13999 ft 220 kts 256°
2026-05-04 13:38 60.90672 -151.80885 13998 ft 220 kts 256°
2026-05-04 13:39 60.90205 -151.83886 13998 ft 220 kts 256°
2026-05-04 13:39 60.89738 -151.86880 14000 ft 221 kts 256°
2026-05-04 13:39 60.89267 -151.89886 14000 ft 221 kts 256°
2026-05-04 13:39 60.88797 -151.92888 13999 ft 221 kts 256°
2026-05-04 13:40 60.88325 -151.95899 14003 ft 221 kts 256°
2026-05-04 13:40 60.87854 -151.98894 14007 ft 221 kts 256°
2026-05-04 13:40 60.87380 -152.01899 14008 ft 221 kts 257°
2026-05-04 13:40 60.86913 -152.04859 13999 ft 221 kts 257°
2026-05-04 13:41 60.86440 -152.07854 14001 ft 220 kts 257°
2026-05-04 13:41 60.85967 -152.10848 14000 ft 220 kts 257°
2026-05-04 13:41 60.85494 -152.13837 14002 ft 220 kts 257°
2026-05-04 13:42 60.84550 -152.19782 14000 ft 219 kts 257°
2026-05-04 13:42 60.84076 -152.22756 14002 ft 219 kts 257°
2026-05-04 13:42 60.83602 -152.25728 14004 ft 219 kts 257°
2026-05-04 13:42 60.83127 -152.28700 14005 ft 219 kts 257°
2026-05-04 13:43 60.82652 -152.31674 14009 ft 219 kts 257°
2026-05-04 13:43 60.82175 -152.34645 13999 ft 220 kts 257°
2026-05-04 13:43 60.81697 -152.37623 14000 ft 220 kts 257°
2026-05-04 13:43 60.81219 -152.40593 14001 ft 219 kts 257°
2026-05-04 13:44 60.80741 -152.43562 14003 ft 219 kts 257°
2026-05-04 13:44 60.80263 -152.46523 14005 ft 219 kts 257°
2026-05-04 13:44 60.79790 -152.49445 14001 ft 219 kts 257°
2026-05-04 13:44 60.79306 -152.52438 14003 ft 219 kts 257°
2026-05-04 13:45 60.78831 -152.55363 14003 ft 219 kts 257°
2026-05-04 13:45 60.78350 -152.58328 14004 ft 219 kts 257°
2026-05-04 13:45 60.77867 -152.61288 14003 ft 219 kts 257°
2026-05-04 13:45 60.77388 -152.64227 14001 ft 218 kts 257°
2026-05-04 13:46 60.76905 -152.67189 14003 ft 218 kts 257°
2026-05-04 13:46 60.76422 -152.70144 14001 ft 219 kts 257°
2026-05-04 13:46 60.75938 -152.73094 14000 ft 219 kts 257°
2026-05-04 13:46 60.75455 -152.76045 14001 ft 219 kts 257°
2026-05-04 13:47 60.74970 -152.78991 13997 ft 218 kts 257°
2026-05-04 13:47 60.74486 -152.81929 14001 ft 218 kts 257°
2026-05-04 13:47 60.74008 -152.84827 13999 ft 217 kts 257°
2026-05-04 13:47 60.73525 -152.87750 14003 ft 217 kts 257°
2026-05-04 13:48 60.73043 -152.90669 14006 ft 217 kts 257°
2026-05-04 13:48 60.72558 -152.93593 14007 ft 217 kts 257°
2026-05-04 13:48 60.72073 -152.96520 14008 ft 217 kts 257°
2026-05-04 13:48 60.71587 -152.99444 14011 ft 218 kts 257°
2026-05-04 13:49 60.71100 -153.02371 14011 ft 217 kts 257°
2026-05-04 13:49 60.70613 -153.05291 14010 ft 217 kts 257°
2026-05-04 13:49 60.70125 -153.08211 14013 ft 217 kts 257°
2026-05-04 13:49 60.69638 -153.11126 14018 ft 217 kts 257°
2026-05-04 13:50 60.69148 -153.14047 14018 ft 217 kts 257°
2026-05-04 13:50 60.68656 -153.16978 14017 ft 218 kts 257°
2026-05-04 13:50 60.68165 -153.19898 14027 ft 217 kts 257°
2026-05-04 13:50 60.67675 -153.22808 14029 ft 217 kts 257°
2026-05-04 13:51 60.67187 -153.25700 14034 ft 216 kts 257°
2026-05-04 13:51 60.66703 -153.28566 14034 ft 216 kts 257°
2026-05-04 13:51 60.66212 -153.31469 14036 ft 216 kts 257°
2026-05-04 13:51 60.65721 -153.34365 14039 ft 216 kts 257°
2026-05-04 13:52 60.64735 -153.40175 14038 ft 217 kts 257°
2026-05-04 13:52 60.64240 -153.43080 14041 ft 217 kts 257°
2026-05-04 13:52 60.63745 -153.45981 14032 ft 217 kts 257°
2026-05-04 13:53 60.63248 -153.48891 14016 ft 218 kts 257°
2026-05-04 13:53 60.62747 -153.51817 14008 ft 218 kts 257°
2026-05-04 13:53 60.62247 -153.54732 14010 ft 218 kts 257°
2026-05-04 13:54 60.61246 -153.60556 14009 ft 217 kts 257°
2026-05-04 13:54 60.60747 -153.63460 14011 ft 217 kts 257°
2026-05-04 13:54 60.59755 -153.69207 14010 ft 216 kts 257°
2026-05-04 13:55 60.59250 -153.72130 14014 ft 216 kts 258°
2026-05-04 13:55 60.58252 -153.77886 13990 ft 216 kts 257°
2026-05-04 13:55 60.57758 -153.80735 13985 ft 216 kts 257°
2026-05-04 13:56 60.57257 -153.83610 13997 ft 215 kts 257°
2026-05-04 13:56 60.56756 -153.86485 14001 ft 215 kts 257°
2026-05-04 13:56 60.55756 -153.92207 14001 ft 214 kts 258°
2026-05-04 13:57 60.55258 -153.95049 14003 ft 214 kts 258°
2026-05-04 13:57 60.54765 -153.97861 14004 ft 213 kts 257°
2026-05-04 13:58 60.53267 -154.06384 14008 ft 213 kts 257°
2026-05-04 13:58 60.52266 -154.12052 14010 ft 213 kts 257°
2026-05-04 13:58 60.51765 -154.14880 14011 ft 213 kts 257°
2026-05-04 13:59 60.51261 -154.17719 14015 ft 213 kts 257°
2026-05-04 13:59 60.50760 -154.20547 14017 ft 213 kts 257°
2026-05-04 13:59 60.49753 -154.26206 14018 ft 213 kts 257°
2026-05-04 14:00 60.49250 -154.29028 14020 ft 213 kts 257°
2026-05-04 14:00 60.48242 -154.34674 14006 ft 213 kts 257°
2026-05-04 14:00 60.47737 -154.37497 14012 ft 212 kts 257°
2026-05-04 14:01 60.47234 -154.40299 14026 ft 211 kts 257°
2026-05-04 14:01 60.46739 -154.43060 14027 ft 211 kts 257°
2026-05-04 14:01 60.45726 -154.48683 14003 ft 213 kts 257°
2026-05-04 14:02 60.45217 -154.51498 14003 ft 213 kts 257°
2026-05-04 14:02 60.44706 -154.54322 14001 ft 213 kts 257°
2026-05-04 14:02 60.44201 -154.57112 14001 ft 213 kts 257°
2026-05-04 14:02 60.43686 -154.59959 14003 ft 213 kts 257°
2026-05-04 14:03 60.43182 -154.62738 14004 ft 213 kts 257°
2026-05-04 14:03 60.42662 -154.65598 14004 ft 213 kts 257°
2026-05-04 14:03 60.42150 -154.68413 14003 ft 213 kts 257°
2026-05-04 14:03 60.41637 -154.71232 14003 ft 213 kts 257°
2026-05-04 14:04 60.40610 -154.76855 14005 ft 213 kts 257°
2026-05-04 14:04 60.40096 -154.79667 14006 ft 213 kts 256°
2026-05-04 14:04 60.39582 -154.82472 14013 ft 212 kts 256°
2026-05-04 14:05 60.38556 -154.88054 14017 ft 212 kts 256°
2026-05-04 14:05 60.38042 -154.90840 14020 ft 212 kts 256°
2026-05-04 14:05 60.37527 -154.93637 14022 ft 211 kts 257°
2026-05-04 14:06 60.37020 -154.96382 14043 ft 211 kts 256°
2026-05-04 14:06 60.36504 -154.99166 14045 ft 212 kts 256°
2026-05-04 14:06 60.35985 -155.01968 14014 ft 214 kts 256°
2026-05-04 14:06 60.35464 -155.04779 14003 ft 214 kts 256°
2026-05-04 14:07 60.34941 -155.07591 14001 ft 214 kts 256°
2026-05-04 14:07 60.34417 -155.10407 14000 ft 214 kts 256°
2026-05-04 14:07 60.33892 -155.13226 14002 ft 215 kts 256°
2026-05-04 14:07 60.33363 -155.16058 14003 ft 215 kts 256°
2026-05-04 14:08 60.32837 -155.18870 13999 ft 215 kts 256°
2026-05-04 14:08 60.32308 -155.21698 13999 ft 215 kts 256°
2026-05-04 14:08 60.31779 -155.24521 13997 ft 215 kts 256°
2026-05-04 14:08 60.31249 -155.27342 13998 ft 214 kts 256°
2026-05-04 14:09 60.30191 -155.32964 14000 ft 214 kts 256°
2026-05-04 14:09 60.29663 -155.35765 14001 ft 214 kts 256°
2026-05-04 14:10 60.28611 -155.41332 14002 ft 213 kts 256°
2026-05-04 14:10 60.28082 -155.44129 14000 ft 213 kts 256°
2026-05-04 14:10 60.27553 -155.46918 14000 ft 213 kts 256°
2026-05-04 14:10 60.27024 -155.49705 14000 ft 213 kts 256°
2026-05-04 14:11 60.26494 -155.52491 14000 ft 212 kts 256°
2026-05-04 14:11 60.25437 -155.58037 14001 ft 212 kts 256°
2026-05-04 14:11 60.24906 -155.60816 14003 ft 212 kts 256°
2026-05-04 14:12 60.24378 -155.63581 14002 ft 212 kts 256°
2026-05-04 14:12 60.23850 -155.66333 14003 ft 211 kts 256°
2026-05-04 14:12 60.22793 -155.71847 14007 ft 211 kts 255°
2026-05-04 14:13 60.22269 -155.74569 14002 ft 211 kts 255°
2026-05-04 14:13 60.21733 -155.77360 14004 ft 211 kts 255°
2026-05-04 14:13 60.21204 -155.80102 14005 ft 211 kts 255°
2026-05-04 14:13 60.20674 -155.82841 14002 ft 210 kts 256°
2026-05-04 14:14 60.20150 -155.85549 14001 ft 210 kts 255°
2026-05-04 14:14 60.19092 -155.91012 14002 ft 210 kts 255°
2026-05-04 14:14 60.18565 -155.93728 14032 ft 208 kts 255°
2026-05-04 14:15 60.17513 -155.99124 14053 ft 207 kts 255°
2026-05-04 14:15 60.16634 -156.03642 14009 ft 209 kts 255°
2026-05-04 14:16 60.15568 -156.09097 14005 ft 210 kts 255°
2026-05-04 14:16 60.15033 -156.11832 14000 ft 210 kts 255°
2026-05-04 14:17 60.13961 -156.17288 14000 ft 210 kts 255°
2026-05-04 14:17 60.13426 -156.20003 14001 ft 210 kts 255°
2026-05-04 14:17 60.12353 -156.25444 14002 ft 210 kts 255°
2026-05-04 14:18 60.11824 -156.28125 14003 ft 210 kts 255°
2026-05-04 14:18 60.10747 -156.33567 14003 ft 211 kts 255°
2026-05-04 14:19 60.09664 -156.39020 14003 ft 211 kts 255°
2026-05-04 14:19 60.09122 -156.41750 14003 ft 211 kts 255°
2026-05-04 14:19 60.08581 -156.44470 14005 ft 210 kts 255°
2026-05-04 14:19 60.08037 -156.47197 14003 ft 211 kts 255°
2026-05-04 14:20 60.07492 -156.49923 14000 ft 211 kts 255°
2026-05-04 14:20 60.06945 -156.52656 14000 ft 211 kts 255°
2026-05-04 14:20 60.06399 -156.55383 14002 ft 211 kts 255°
2026-05-04 14:21 60.05306 -156.60826 14001 ft 211 kts 255°
2026-05-04 14:21 60.04757 -156.63556 14002 ft 211 kts 255°
2026-05-04 14:21 60.04214 -156.66253 14003 ft 211 kts 254°
2026-05-04 14:21 60.03663 -156.68984 14002 ft 212 kts 254°
2026-05-04 14:22 60.03112 -156.71715 14004 ft 212 kts 254°
2026-05-04 14:22 60.02560 -156.74447 14005 ft 212 kts 254°
2026-05-04 14:22 60.02007 -156.77182 14002 ft 212 kts 254°
2026-05-04 14:22 60.01450 -156.79930 14004 ft 212 kts 254°
2026-05-04 14:23 60.00341 -156.85390 14005 ft 212 kts 254°
2026-05-04 14:23 59.99783 -156.88130 14006 ft 212 kts 254°
2026-05-04 14:23 59.99227 -156.90854 14006 ft 212 kts 254°
2026-05-04 14:24 59.98671 -156.93577 14003 ft 211 kts 254°
2026-05-04 14:24 59.98118 -156.96284 13994 ft 211 kts 254°
2026-05-04 14:24 59.97565 -156.98986 14000 ft 210 kts 254°
2026-05-04 14:24 59.97012 -157.01683 14001 ft 209 kts 254°
2026-05-04 14:25 59.96460 -157.04370 14001 ft 209 kts 254°
2026-05-04 14:25 59.95366 -157.09695 14001 ft 208 kts 254°
2026-05-04 14:25 59.94816 -157.12367 14005 ft 208 kts 254°
2026-05-04 14:26 59.94258 -157.15077 14002 ft 208 kts 254°
2026-05-04 14:26 59.93713 -157.17713 13999 ft 208 kts 254°
2026-05-04 14:26 59.93154 -157.20416 14000 ft 208 kts 254°
2026-05-04 14:26 59.92610 -157.23045 14001 ft 208 kts 254°
2026-05-04 14:27 59.92056 -157.25714 13999 ft 208 kts 254°
2026-05-04 14:27 59.91502 -157.28384 13997 ft 208 kts 254°
2026-05-04 14:27 59.90948 -157.31046 13995 ft 208 kts 254°
2026-05-04 14:27 59.90394 -157.33706 13994 ft 208 kts 254°
2026-05-04 14:28 59.89839 -157.36371 14003 ft 207 kts 254°
2026-05-04 14:28 59.89283 -157.39031 14007 ft 208 kts 254°
2026-05-04 14:28 59.88729 -157.41685 14005 ft 208 kts 254°
2026-05-04 14:28 59.88172 -157.44347 14001 ft 208 kts 254°
2026-05-04 14:29 59.87058 -157.49660 13997 ft 208 kts 253°
2026-05-04 14:29 59.85949 -157.54938 13999 ft 208 kts 253°
2026-05-04 14:30 59.85389 -157.57598 14000 ft 208 kts 253°
2026-05-04 14:30 59.84830 -157.60248 13998 ft 208 kts 253°
2026-05-04 14:30 59.83707 -157.65558 13999 ft 208 kts 253°